sat.trackr.live / text

‹ back to catalog

STARLINK-1835

NORAD 46782 · 2020-074AV

PAYLOAD ACTIVE UNKNOWN

§ Identity

Operator
Country
US
Launch date
2020-10-24
Launch site
AFETR
Launch vehicle
Mass (kg)
RCS (m²)

Purposes: comms

External: N2YO · Heavens-Above · Gunter

§ Orbital elements

Epoch: 2026-05-25T00:50:06.505728Z

Period
91.65 min
Inclination
53.0409°
Eccentricity
0.0006249
Mean motion
15.71110280 rev/d
Perigee alt
351.5 km
Apogee alt
359.9 km
Semi-major
6,733.9 km
B*
6.3003e-4
RAAN
259.7732°
Arg perigee
254.6917°
Mean anomaly
105.3410°
Rev number
30,929

§ Raw data

STARLINK-18351 46782U 20074AV  26145.03479752  .00081198  00000+0  63003-3 0  99962 46782  53.0409 259.7732 0006249 254.6917 105.3410 15.71110280309293

JSON: /api/v1/satellites/46782 · /tle

For live sub-satellite position, see the globe view (requires WebGL).

§ Visibility from observer

Set your observer location to see the next 7 days of passes ≥ 10°. The values pass through the URL so the page stays shareable.

No JS? Fill the form by hand. The geolocation button needs JavaScript.